Flag for Chad Weather past 2 weeks in Ndjamena, Chad

Now
79 °F

Haze.


Feels Like: 79 °F
Forecast: 69 / 99 °F
Wind: 5 mph from North

Location: Ndjamena

Current Time: Jan 26, 2015 at 10:17:31 PM

Latest Report: Jan 26, 2015 at 9:00 PM


Visibility: 2 mi

Pressure: 29.86 "Hg

Humidity: 34%

Dew point: 48 °F

Location of NdjamenaLocation

Historic Weather in Ndjamena — Graph

°F

Ndjamena temperature yesterday

Maximum temperature yesterday: 100 °F (at 2:00 PM)
Minimum temperature yesterday: 68 °F (at 4:00 AM)
Average temperature yesterday: 83 °F

Past Weeks' High & Low Weather Summary

 TemperatureHumidityPressure
High102 °F (Jan 26, 3:00 PM)63% (Jan 15, 6:00 AM)30.12 "Hg (Jan 15, 6:00 AM)
Low48 °F (Jan 14, 5:00 AM)13% (Jan 22, 5:00 PM)29.71 "Hg (Jan 18, 11:00 PM)
Average77 °F33%29.92 "Hg
* Reported Jan 12 7:00 AM — Jan 26 9:00 PM, Ndjamena, Weather by CustomWeather, © 2014

Note: Actual official high and low records may vary slightly from our data, if they occured in-between our weather recording intervals... More about our weather records

Advertising

Ndjamena weather history for previous 24 hours

 ConditionsComfort  
Time TempWeatherWind HumidityBarometerVisibility
9:00 PM
Jan 26
79 °FHaze.5 mph34%29.86 "Hg2 mi
8:00 PM81 °FHaze.3 mph32%29.86 "Hg3 mi
7:00 PM86 °FHaze.5 mph27%29.83 "Hg3 mi
6:00 PM91 °FHaze.7 mph23%29.80 "Hg3 mi
5:00 PM99 °FClear.7 mph19%29.80 "Hg4 mi
4:00 PM100 °FClear.10 mph18%29.80 "Hg4 mi
3:00 PM102 °FClear.13 mph18%29.80 "Hg4 mi
2:00 PM100 °FClear.12 mph18%29.83 "Hg4 mi
1:00 PM99 °FClear.14 mph19%29.86 "Hg4 mi
12:00 PM97 °FClear.14 mph20%29.86 "Hg4 mi
11:00 AM93 °FHaze.15 mph21%29.89 "Hg2 mi
10:00 AM88 °FHaze.15 mph24%29.92 "Hg2 mi
9:00 AM82 °FHaze.18 mph26%29.89 "Hg2 mi
8:00 AM75 °FClear.10 mph34%29.89 "Hg4 mi
1:00 AM73 °FClear.6 mph44%29.83 "Hg10 mi
12:00 AM73 °FClear.3 mph44%29.83 "Hg10 mi
11:00 PM
Jan 25
75 °FPassing clouds.5 mph41%29.83 "HgN/A
10:00 PM77 °FClear.2 mph36%29.83 "Hg10 mi
Weather by CustomWeather, © 2014

See weather overviewHow to use our weather pages